Wind_Speed
8 7 8 9 9 10 11 10 10 11 11 11 11 11 11 11 11 10 11 10 11 10 10 10 10 10 9 9 8 8 8 8 8 8 8 7 6 5 4 4 4 4 3
8 8 8 9 11 12 11 11 11 11 12 12 12 11 11 11 10 10 10 11 11 10 9 10 10 10 9 9 9 8 8 8 8 8 8 7 6 5 5 4 4 3 3
9 10 10 10 10 11 11 11 11 11 12 12 12 11 11 11 11 11 12 11 11 10 10 9 10 10 9 9 9 9 8 8 8 8 7 6 5 5 4 3 3 3 3
10 11 11 11 11 11 11 11 12 13 13 12 12 12 11 11 11 11 11 12 12 11 10 10 10 10 10 9 9 8 8 8 8 7 7 6 5 4 4 3 2 2 2
11 11 11 10 11 11 11 11 13 13 13 12 12 12 11 11 11 11 11 11 11 11 10 11 10 10 10 9 9 8 8 8 8 7 6 6 5 4 4 3 2 2 2
11 11 11 10 11 12 12 11 12 12 12 12 12 11 11 10 10 10 10 10 10 10 10 10 10 10 9 9 10 9 8 7 7 6 5 5 4 4 3 2 2 2 2
11 11 11 11 11 12 12 12 12 12 12 12 12 11 11 11 10 10 10 10 10 10 9 9 9 9 9 8 9 8 7 6 6 6 5 4 3 3 2 2 2 2 2
11 11 12 12 12 12 13 12 12 12 12 12 12 12 11 10 10 10 11 10 10 9 9 8 8 8 8 7 7 7 6 6 5 5 4 3 2 2 2 2 2 2 1
11 12 12 12 12 13 13 13 13 12 12 13 12 11 10 10 10 10 11 11 10 9 9 9 8 7 7 6 6 6 5 4 4 4 3 2 2 2 3 2 2 2 3
11 12 13 13 13 13 12 12 12 12 12 12 12 10 9 9 10 10 11 10 10 8 8 8 7 6 6 6 5 5 5 4 3 3 2 2 2 3 3 3 3 3 3
11 12 12 13 13 12 12 12 12 12 11 11 11 11 10 10 11 11 10 10 9 8 7 6 6 5 5 5 4 4 4 3 2 2 2 2 3 3 4 3 3 3 3
10 11 12 12 12 12 12 11 11 11 11 11 11 11 11 12 11 11 10 9 8 7 6 5 5 4 3 3 3 3 3 3 3 3 3 3 3 4 4 4 4 4 4
10 10 11 11 11 12 12 11 11 11 11 11 10 10 11 11 11 10 9 8 7 7 6 5 4 3 2 3 3 3 3 3 4 4 4 4 5 5 5 5 5 5 5
10 10 10 10 10 11 11 11 11 10 10 10 10 10 10 10 9 8 7 7 6 5 4 4 3 2 1 2 2 2 3 3 4 4 5 5 5 5 6 6 6 6 7
10 9 9 9 9 10 10 10 10 9 9 9 9 9 9 8 7 6 5 5 5 4 3 2 1 0 0 1 2 2 3 3 4 5 5 5 6 6 6 6 7 8 8
10 9 9 9 9 9 9 9 8 8 8 8 8 7 6 6 6 5 4 4 3 2 2 2 1 1 1 1 2 3 4 4 5 6 6 6 6 7 7 7 8 10 10
10 9 9 9 9 8 8 8 8 7 7 7 7 6 6 5 4 4 3 2 2 2 2 1 1 1 1 2 2 3 4 5 6 7 7 7 7 8 8 9 9 10 10
10 9 8 8 8 8 7 7 7 7 7 6 6 6 5 4 4 3 3 3 2 2 1 1 1 1 2 2 3 3 4 5 6 7 7 7 7 8 8 9 9 10 11
9 9 8 8 8 8 7 7 6 6 6 6 5 5 5 4 4 3 3 3 2 2 2 1 2 2 2 2 2 3 4 5 7 7 8 8 8 9 8 8 10 10 10
8 8 8 7 7 8 7 7 6 6 5 5 5 5 4 4 4 3 3 3 3 2 2 2 2 2 2 3 3 4 5 6 7 8 8 9 9 9 9 10 10 11 11
8 8 7 7 7 7 7 7 7 6 6 6 6 5 5 5 4 4 4 4 3 2 2 2 3 3 4 4 5 6 6 7 8 8 9 9 9 10 11 11 11 12 12
7 7 7 6 6 6 6 6 6 7 6 6 7 6 5 5 5 5 5 5 4 3 3 4 4 5 5 6 6 7 7 8 8 9 9 10 10 11 11 11 12 13 13
7 6 6 5 5 5 5 5 5 5 5 6 6 6 5 5 5 5 5 5 5 4 4 5 5 6 7 8 8 8 9 9 9 10 10 10 11 11 11 12 13 13 13
6 6 6 5 5 5 5 5 4 4 4 5 5 5 5 5 5 6 6 6 6 6 5 6 6 7 7 8 9 10 10 10 10 11 11 11 11 11 11 12 12 12 12
6 6 5 5 4 4 5 4 4 4 4 4 4 4 4 5 4 5 6 6 6 6 7 7 7 7 8 9 9 10 10 10 10 10 11 11 12 11 12 12 12 12 12
5 5 5 5 4 4 4 4 4 3 3 4 4 4 4 4 4 5 6 6 6 6 7 7 7 8 8 9 9 10 10 10 10 10 11 11 12 12 12 12 12 12 13
Wind_Direction
104 100 100 104 115 125 128 125 122 124 123 124 121 118 120 123 122 125 134 139 141 144 145 148 150 147 144 143 141 143 142 138 137 138 135 133 132 128 121 116 118 115 114
104 105 107 112 116 120 124 125 122 122 124 125 123 121 119 120 120 124 129 134 135 141 144 144 148 149 146 143 141 141 137 135 134 133 130 130 134 132 124 117 122 117 114
102 102 107 110 114 116 119 123 124 125 123 125 124 125 121 119 120 122 120 124 129 135 137 138 143 146 145 145 141 139 138 138 138 136 132 132 136 135 129 122 117 119 126
97 100 103 107 113 118 119 121 123 123 125 124 123 124 121 120 122 125 122 122 126 128 123 126 131 140 144 143 140 140 143 144 142 140 135 132 133 129 126 124 123 127 141
95 97 99 107 110 116 119 120 120 121 124 124 123 122 120 122 125 127 124 123 127 125 122 122 127 133 140 141 139 140 143 140 140 139 140 141 135 130 122 120 121 133 150
95 97 100 106 108 111 113 115 115 115 118 120 123 123 121 124 130 128 122 123 126 126 124 124 128 133 137 139 138 137 136 138 145 144 143 146 137 131 126 125 134 151 179
95 99 102 106 109 107 109 112 113 113 114 118 122 123 120 123 128 130 128 129 128 130 131 131 133 134 139 138 138 137 136 144 154 154 156 152 142 155 152 169 176 191 209
94 97 104 106 106 104 106 108 109 112 111 112 114 117 120 126 128 130 136 136 133 131 131 133 134 136 139 139 137 137 137 147 155 155 158 157 159 182 189 201 207 215 221
97 100 101 103 103 103 104 106 109 110 110 111 110 113 119 124 124 129 136 137 137 137 135 133 132 135 136 138 136 139 143 147 148 145 150 162 190 209 214 221 242 240 238
100 100 101 102 103 103 105 109 107 106 109 109 108 107 114 122 125 129 134 136 136 136 135 136 135 136 135 132 132 138 143 141 146 150 170 191 214 224 240 252 261 253 246
98 97 99 101 103 103 104 106 108 108 110 110 110 107 112 119 124 125 124 127 129 131 130 130 132 133 132 133 134 136 147 157 166 179 202 214 229 243 252 266 267 260 251
97 97 98 100 103 104 103 103 104 108 111 111 112 110 110 112 112 116 120 120 121 123 125 122 128 135 141 143 151 161 179 202 219 228 232 237 244 253 255 261 262 261 249
95 96 97 98 103 105 102 100 98 101 109 112 111 106 106 109 111 114 117 116 115 115 113 114 119 126 156 173 183 201 217 228 231 237 244 253 257 259 260 258 263 261 258
93 96 95 97 104 106 103 101 99 98 101 103 104 104 104 105 106 109 112 112 115 113 110 105 105 102 141 182 198 224 230 234 244 255 263 266 268 260 258 259 261 261 265
92 95 93 95 103 107 107 105 102 100 97 98 101 103 107 109 107 108 116 124 123 125 123 107 99 91 244 240 248 254 251 249 255 262 272 273 272 267 264 266 264 265 271
91 93 95 97 105 108 106 106 105 106 98 99 99 100 107 111 109 105 104 116 122 122 112 94 78 46 358 273 266 266 265 269 274 278 285 290 281 274 271 271 272 272 273
86 89 92 93 101 105 102 99 99 102 98 95 95 96 99 107 107 100 93 97 116 128 122 105 67 29 351 313 291 275 269 275 283 284 285 295 293 284 278 275 276 279 281
81 84 88 87 90 96 97 98 101 94 91 88 89 90 94 97 96 85 76 78 87 94 105 103 43 15 349 330 318 300 287 282 291 292 290 295 293 292 287 282 281 285 286
77 80 83 85 86 92 94 90 91 87 84 80 76 81 87 89 85 79 66 58 72 91 94 67 38 17 4 349 333 317 306 302 303 302 296 294 296 294 291 292 288 284 283
73 75 78 80 83 84 79 80 79 78 77 70 67 70 74 74 75 72 62 55 60 66 73 59 28 12 357 345 329 318 308 304 303 305 305 300 296 295 293 294 291 286 283
66 67 69 72 75 76 73 76 77 75 71 64 61 70 73 73 70 62 60 60 53 42 32 24 3 350 333 327 320 314 309 308 307 307 304 300 296 293 291 291 292 290 288
61 59 63 67 69 72 74 75 73 67 63 59 58 61 64 58 54 50 48 41 31 18 4 354 344 341 335 324 319 317 314 310 309 309 306 302 298 296 291 289 291 293 294
58 57 58 64 70 68 68 68 66 60 56 57 60 60 60 52 42 36 37 28 25 11 356 343 335 333 332 328 320 317 315 309 308 305 302 304 304 302 297 290 291 294 297
52 50 55 63 68 66 58 59 57 54 53 56 57 54 50 44 37 32 28 25 19 12 359 347 338 332 329 326 322 320 316 312 311 308 305 303 303 302 303 301 297 298 297
51 47 51 53 60 64 56 55 51 54 56 53 49 44 39 33 28 24 21 16 11 5 358 351 344 338 333 330 326 325 322 319 314 312 311 308 306 307 306 304 303 300 296
45 43 48 56 55 50 43 40 37 41 51 45 37 31 26 23 20 15 11 9 5 2 355 350 346 340 337 334 331 330 328 323 322 315 309 307 308 308 308 309 307 305 301
Height
5865 5864 5863 5863 5862 5862 5863 5864 5864 5864 5865 5865 5866 5867 5868 5869 5869 5870 5871 5872 5873 5874 5875 5876 5877 5879 5880 5881 5883 5884 5885 5886 5887 5888 5889 5889 5890 5891 5891 5891 5891 5892 5892
5867 5866 5865 5865 5864 5863 5864 5865 5865 5866 5866 5867 5867 5869 5869 5870 5871 5871 5872 5873 5874 5875 5876 5876 5878 5879 5881 5882 5883 5884 5885 5886 5888 5889 5889 5890 5891 5892 5892 5892 5892 5892 5892
5867 5867 5866 5866 5866 5866 5866 5866 5867 5867 5868 5868 5869 5870 5871 5871 5872 5872 5873 5874 5875 5875 5875 5876 5877 5880 5882 5883 5884 5885 5886 5887 5888 5889 5890 5891 5891 5892 5893 5893 5893 5893 5893
5869 5869 5868 5868 5868 5868 5868 5868 5868 5869 5869 5870 5871 5872 5872 5873 5873 5874 5874 5875 5876 5876 5876 5876 5878 5880 5883 5884 5885 5886 5887 5888 5889 5890 5891 5891 5892 5892 5893 5893 5894 5894 5894
5871 5870 5870 5870 5870 5869 5870 5870 5870 5871 5871 5872 5873 5873 5874 5874 5875 5875 5876 5877 5877 5877 5878 5878 5879 5882 5884 5885 5886 5887 5888 5889 5890 5891 5892 5892 5893 5893 5894 5894 5894 5894 5894
5873 5872 5872 5872 5872 5872 5872 5872 5872 5872 5873 5873 5874 5875 5875 5875 5876 5876 5877 5878 5879 5879 5880 5881 5882 5884 5885 5886 5887 5888 5889 5890 5891 5892 5893 5893 5893 5894 5894 5894 5894 5895 5895
5875 5874 5874 5874 5874 5874 5874 5874 5874 5874 5875 5875 5875 5876 5876 5877 5877 5877 5878 5880 5880 5881 5882 5883 5884 5885 5887 5888 5889 5889 5890 5891 5892 5893 5893 5894 5894 5894 5895 5895 5895 5895 5895
5876 5876 5876 5876 5876 5876 5876 5876 5876 5876 5876 5877 5877 5877 5877 5877 5877 5877 5879 5881 5882 5883 5884 5885 5886 5887 5888 5889 5889 5890 5891 5892 5892 5893 5893 5894 5894 5895 5895 5895 5895 5895 5895
5878 5878 5878 5878 5878 5878 5878 5878 5878 5878 5878 5879 5879 5879 5878 5878 5878 5878 5880 5882 5883 5884 5885 5886 5887 5888 5889 5890 5890 5891 5891 5891 5893 5893 5894 5894 5894 5895 5895 5895 5895 5895 5895
5881 5880 5880 5880 5880 5880 5880 5880 5880 5880 5880 5880 5880 5880 5879 5879 5879 5880 5881 5883 5885 5886 5887 5887 5888 5889 5890 5890 5891 5892 5892 5893 5893 5894 5894 5894 5894 5894 5894 5894 5895 5894 5894
5883 5883 5882 5882 5882 5882 5882 5882 5882 5882 5882 5882 5882 5882 5881 5880 5881 5882 5883 5885 5886 5887 5888 5889 5889 5890 5891 5891 5892 5892 5893 5894 5894 5894 5894 5894 5894 5894 5894 5894 5894 5894 5894
5886 5885 5885 5885 5885 5884 5884 5884 5885 5884 5884 5884 5884 5884 5883 5883 5883 5884 5885 5887 5888 5889 5889 5890 5890 5891 5891 5892 5892 5893 5893 5894 5894 5894 5894 5894 5894 5894 5893 5893 5893 5893 5893
5888 5888 5887 5887 5887 5887 5887 5887 5887 5886 5886 5886 5886 5886 5886 5885 5886 5887 5887 5888 5889 5890 5890 5891 5891 5892 5892 5892 5892 5893 5893 5894 5893 5893 5893 5893 5893 5893 5892 5892 5892 5892 5892
5890 5890 5890 5889 5889 5889 5889 5889 5889 5889 5888 5888 5888 5888 5889 5889 5889 5889 5890 5890 5891 5891 5892 5892 5892 5892 5892 5892 5892 5893 5893 5893 5893 5893 5892 5892 5892 5892 5891 5891 5891 5891 5890
5892 5892 5892 5891 5891 5891 5892 5892 5892 5891 5891 5890 5891 5891 5891 5891 5891 5892 5892 5892 5892 5892 5893 5893 5893 5893 5893 5892 5892 5893 5893 5893 5892 5892 5892 5891 5891 5891 5890 5890 5889 5889 5889
5894 5894 5893 5893 5893 5893 5893 5894 5894 5893 5893 5893 5893 5893 5893 5893 5893 5893 5893 5893 5893 5894 5894 5894 5893 5893 5893 5893 5893 5892 5892 5892 5892 5891 5891 5890 5890 5889 5889 5888 5888 5887 5887
5897 5896 5896 5895 5895 5895 5895 5895 5895 5895 5895 5895 5895 5895 5894 5894 5894 5894 5894 5894 5894 5894 5894 5894 5894 5894 5893 5893 5892 5892 5892 5891 5891 5890 5889 5889 5888 5888 5887 5887 5886 5885 5885
5899 5898 5897 5897 5896 5896 5896 5896 5896 5896 5896 5896 5896 5896 5896 5896 5895 5895 5895 5895 5894 5894 5894 5894 5894 5894 5893 5892 5892 5891 5891 5890 5890 5889 5888 5887 5887 5886 5885 5885 5884 5883 5882
5901 5900 5899 5899 5898 5898 5898 5897 5897 5897 5897 5897 5897 5897 5897 5897 5896 5896 5896 5895 5895 5895 5894 5894 5894 5893 5893 5892 5891 5891 5890 5890 5889 5888 5887 5886 5885 5884 5884 5883 5882 5881 5880
5903 5902 5901 5900 5900 5899 5899 5899 5899 5898 5898 5898 5898 5898 5897 5897 5897 5897 5896 5896 5895 5895 5894 5894 5894 5893 5892 5892 5891 5890 5889 5889 5888 5887 5886 5885 5884 5883 5882 5881 5880 5878 5877
5904 5904 5903 5902 5901 5901 5901 5900 5900 5900 5899 5899 5899 5898 5898 5898 5897 5897 5897 5896 5895 5895 5894 5894 5893 5892 5892 5891 5890 5890 5889 5887 5886 5885 5884 5883 5882 5881 5880 5879 5878 5876 5875
5906 5905 5904 5904 5903 5903 5902 5902 5901 5901 5900 5900 5899 5899 5899 5898 5898 5897 5897 5896 5895 5895 5894 5894 5893 5892 5891 5890 5889 5888 5887 5887 5885 5883 5882 5881 5880 5878 5878 5877 5876 5874 5873
5907 5906 5906 5905 5904 5904 5903 5903 5902 5902 5901 5901 5900 5900 5899 5899 5898 5898 5897 5896 5895 5894 5894 5893 5892 5891 5890 5889 5888 5887 5886 5885 5883 5882 5881 5879 5878 5876 5875 5874 5873 5872 5870
5909 5908 5907 5906 5905 5905 5904 5904 5903 5903 5902 5902 5901 5900 5900 5899 5899 5898 5897 5896 5895 5894 5893 5892 5891 5890 5889 5888 5887 5886 5885 5883 5882 5880 5879 5877 5876 5874 5873 5871 5870 5869 5867
5910 5909 5908 5907 5906 5906 5905 5905 5904 5903 5903 5902 5902 5901 5900 5900 5899 5898 5897 5896 5895 5894 5893 5892 5891 5889 5888 5887 5885 5884 5882 5881 5879 5878 5876 5875 5873 5872 5870 5869 5868 5866 5865
5911 5910 5909 5908 5907 5906 5906 5905 5905 5904 5903 5903 5902 5901 5901 5900 5899 5898 5897 5896 5894 5893 5892 5891 5890 5889 5887 5886 5884 5882 5881 5879 5877 5876 5874 5872 5871 5869 5868 5866 5865 5863 5862